Preview of NWS' New Version of Forecast
This preview is not operational and should not be used for support decisions.

Regional Weather Roundup (RWR)

Issued by National Weather Service (NWS)

                            
000
ASUS45 KBOU 201810
RWRCO 

WEATHER ROUNDUP FOR COLORADO
NATIONAL WEATHER SERVICE DENVER/BOULDER CO
1200 PM MDT THU JUN 20 2019

NOTE: "FAIR" INDICATES FEW OR NO CLOUDS BELOW 12000 FEET WITH NO
SIGNIFICANT WEATHER AND/OR OBSTRUCTIONS TO VISIBILITY.

COZ001>005-013-030-031-201900-
...NORTHWEST COLORADO...
  
CITY           SKY/WX    TMP DP  RH WIND       PRES   REMARKS
CRAIG          FAIR      75  37  25 VRB7      29.89F                  
HAYDEN         FAIR      70  38  31 SW8       29.93F                  
MEEKER         FAIR      76  34  21 W8G18     29.90F                  
RANGELY        FAIR      83  32  16 W12G20    29.82F                  
RABBIT EARS PA NOT AVBL                                               
STEAMBOAT SPGS FAIR      67  38  34 W5        29.94F                  
WALDEN         NOT AVBL                                               
$$

COZ006>008-011-201900-
...WEST CENTRAL VALLEYS...
  
CITY           SKY/WX    TMP DP  RH WIND       PRES   REMARKS
GRAND JUNCTION FAIR      85  38  18 VRB5      29.82F                  
MONTROSE       FAIR      83  35  18 SW18G30   29.93F                  
EAGLE          PTSUNNY   75  38  26 SW21G30   29.94F                  
RIFLE          FAIR      82  41  23 W14       29.86F                  
DELTA          FAIR      87  33  14 SE6       29.87F                  
NUCLA          FAIR      82  32  16 SW17      29.98F                  
$$

COZ017>023-064>068-201900-
...SOUTHWEST COLORADO...
  
CITY           SKY/WX    TMP DP  RH WIND       PRES   REMARKS
DURANGO        FAIR      78  33  19 W10G21    30.06F                  
CORTEZ         FAIR      82  36  19 SW14G23   30.00F                  
PAGOSA SPRINGS FAIR      72  35  25 SW9       30.14F THUNDER          
TELLURIDE      FAIR      66  32  28 CALM      30.20F                  
WOLF CREEK PAS NOT AVBL                                               
$$

COZ009-010-012-014-032>034-037-058>063-201900-
...CENTRAL COLORADO...
  
CITY           SKY/WX    TMP DP  RH WIND       PRES   REMARKS
ASPEN          FAIR      74  31  20 S16G29    30.03F                  
BUENA VISTA    FAIR      73  24  15 SW17G26   30.05R                  
COPPER MTN     FAIR      54  28  37 W21G41    30.31F                  
BERTHOUD PASS  FAIR      46  36  66 W33G39    30.31S                  
COTTONWOOD PAS NOT AVBL                                               
GUNNISON       PTSUNNY   73  38  27 W13G26    30.05F                  
GRANBY         FAIR      68  37  32 SW5G20    30.04F                  
KREMMLING      FAIR      73  37  27 W17G30    29.98F                  
LEADVILLE      PTSUNNY   63  24  22 SW12G31   30.17R                  
MONARCH PASS   FAIR      54  30  40 MISG      30.43S                  
SALIDA         FAIR      78  28  15 W17G25    30.10F                  
SUNLIGHT       FAIR      55  32  41 SW14G31   30.25S                  
WILKERSON PASS FAIR      63  25  23 SW10G23   30.28S                  
$$

COZ069>075-201900-
...SAN LUIS VALLEY/SANGRE DE CRISTO MOUNTAINS...
  
CITY           SKY/WX    TMP DP  RH WIND       PRES   REMARKS
ALAMOSA        FAIR      79  24  13 W16G26    30.06F                  
DEL NORTE      FAIR      76  31  18 W7G18     30.09S                  
LA VETA PASS   NOT AVBL                                               
SAGUACHE       FAIR      68  36  30 CALM      30.09S                  
$$

COZ035-036-038>040-201900-
...NORTHERN COLORADO FRONT RANGE...
  
CITY           SKY/WX    TMP DP  RH WIND       PRES   REMARKS
DENVER INTL AP FAIR      74  46  36 SE10G21   29.88F                  
AURORA         MOSUNNY   74  45  34 SE13G23   29.89F                  
FRONT RANGE AP MOSUNNY   75  48  38 SE15      29.89F                  
ERIE MUNI ARPT FAIR      76  41  28 S8G18     29.91F                  
BOULDER MUN AP FAIR      73  45  35 SE7       29.86F                  
CENTENNIAL     FAIR      76  45  33 E9G20     29.89F                  
BROOMFIELD     MOSUNNY   75  41  29 E13       29.88F                  
FORT COLLINS   FAIR      73  49  42 S10G21    29.86F                  
LONGMONT       FAIR      77  44  30 SE8G16    29.87F                  
$$

COZ041-046-047-076>085-087-088-201900-
...PIKES PEAK/PALMER DIVIDE AND SOUTHERN FOOTHILLS...
  
CITY           SKY/WX    TMP DP  RH WIND       PRES   REMARKS
COLO. SPRINGS  FAIR      78  44  29 S17G28    29.94F                  
A. F. ACADEMY  FAIR      76  42  29 S20       29.93F                  
SCHRIEVER AFB  NOT AVBL                                               
CHEYENNE MTN   NOT AVBL                                               
ELLICOTT         N/A    N/A N/A N/A SE14      29.94F                  
FALCON         FAIR      75  39  27 S18G26    30.00F                  
FORT CARSON    FAIR      78  46  31 SE16      29.90F                  
LIMON          FAIR      74  47  38 E10       29.92S                  
MONUMENT HILL  FAIR      72  43  35 SE20G26   30.00F                  
CANON CITY     FAIR      84  43  23 SE10G16   29.88F                  
WALSENBURG     NOT AVBL                                               
TRINIDAD       FAIR      88  33  14 MISG      29.92F                  
$$

COZ042>045-048>051-090-091-201900-
...NORTHEAST COLORADO...
  
CITY           SKY/WX    TMP DP  RH WIND       PRES   REMARKS
GREELEY ARPT   FAIR      74  49  41 SE13      29.85F                  
AKRON          FAIR      72  53  51 SE9       29.87F                  
BURLINGTON     FAIR      81  48  31 E14G22    29.86F                  
WRAY           FAIR      81  46  30 E7        29.82F                  
YUMA           FAIR      73  28  19 E6        29.85S                  
STERLING       FAIR      73  54  49 E3        29.83F                  
HOLYOKE        FAIR      79  55  44 NE6       29.83S                  
FORT MORGAN    FAIR      72  47  42 SE3       29.87F                  
$$

COZ086-089-092>099-201900-
...SOUTHEAST COLORADO...
  
CITY           SKY/WX    TMP DP  RH WIND       PRES   REMARKS
PUEBLO         FAIR      83  48  29 SE14G22   29.84F                  
LA JUNTA       FAIR      87  46  24 E13G18    29.84F                  
LAMAR          FAIR      84  53  34 NE9       29.81F                  
SPRINGFIELD      N/A     85  50  29 N6        29.85S                  
$$